Showing default

GAOFEN 12 04, 57654

Orbit data source: Space-Track

GAOFEN 12 04, 57654 is a payload satellite owned by PLA SSF (CN) in SSO that was launched on Sun, 20 Aug 2023 UTC via a CHANG ZHENG 4C launch vehicle from the Jiuquan Satellite Launch Center, China (JSC). Payload-class satellites include a variety of spacecraft equipped with specific instruments for various scientific and technological missions. These include communications satellites like Starlink; space stations such as the ISS; scientific satellites like the Hubble; Earth observation satellites from companies like Planet Labs, Umbra, and HawkEye 360; GPS; miniature CubeSats for education and research; and military/defense satellites.

Loading next visibility...
Identifier
57654, 2023-123A
Orbit
SSO
Country
Flag of CNCN / PRC
Related business
Manufacturer
SAST
Mission
Operational Defense Radar Imaging
Bus & Motor
CS-L3000B?, Unknown motor
Mass
~3,000 kg wet, ~3,000 kg dry
Launch date (UTC)
2023-08-20 (2 years ago)
Launch vehicle
CHANG ZHENG 4C
Launch site
Jiuquan Satellite Launch Center, China (JSC)
Object type
Payload
Rocket body
Debris
Shape & HBR
Box + 3 Pan, 4.0 m
Radar Cross Section
10.846 m², Large (>1 m²)

Expand to show TLE details & history
Last TLE update: 8 hours ago

TLE from 8 hours ago
0 GAOFEN 12 04
1 57654U 23123A   25260.98453464  .00001262  00000-0  17005-3 0  9993
2 57654  97.9050 178.1023 0002120 115.4653 244.6779 14.80897252112370
Epoch: 2025-09-17T23:37Z
TLE epoch observation values (Epoch: 2025-09-17T23:37:43.792Z)
Latitude
-0.00004°
Longitude
-173.4828°
Altitude
630.151 km
Speed
7.543 km/s
True Right ascension
11h 52m 24s
True Declination
0° 00' 00"
Sunlit
Object was in daylight at epoch
Visualization orbit readout
Latitude
Unknown
Longitude
Unknown
Altitude
Unknown
Speed
Unknown
Apparent Right ascension
Unknown
Apparent Declination
Unknown
Sunlit
N/A
Visualization observer readout
Local Sidereal Time
00:19:18
Azimuth
Unknown
Elevation
Unknown
Doppler factor
Unknown
Orbital elements
Apogee altitude
625.018 km
Perigee altitude
622.049 km
Semi-major axis
7,001.67 km
Eccentricity
0.00021
Inclination
97.905°
RAAN
178.1023°
Arg. of periapsis
115.4653°
True anomaly
244.65594°
Mean anomaly
244.6779°
Eccentric anomaly
244.66692°
Mean motion
3.70459 °/min
Orbital period
97.18 mins
BSTAR
0.00017005
Loading maneuver chart data...
Computing Atmospheric mass density...
Loading historical data...
Loading historical data...
Loading historical data...
Loading historical data...
Loading historical data...
Loading historical data...
Loading historical data...
Other satellites on launch #123 in the year 2023 (2023-08-20 UTC)

Documentation

Showing up to 5 results
|